TimeEDT,TemperatureF,Dew PointF,Humidity,Sea Level PressureIn,VisibilityMPH,Wind Direction,Wind SpeedMPH,Gust SpeedMPH,PrecipitationIn,Events,Conditions,WindDirDegrees,DateUTC
12:53 AM,41.0,37.0,86,30.25,7.0,Calm,Calm,-,N/A,,Clear,0,2013-03-30 04:53:00
1:53 AM,41.0,37.0,86,30.24,7.0,Calm,Calm,-,N/A,,Clear,0,2013-03-30 05:53:00
2:53 AM,37.9,35.1,89,30.24,5.0,Calm,Calm,-,N/A,,Clear,0,2013-03-30 06:53:00
3:53 AM,37.9,35.1,89,30.24,5.0,Calm,Calm,-,N/A,,Clear,0,2013-03-30 07:53:00
4:53 AM,36.0,35.1,97,30.23,2.0,Calm,Calm,-,N/A,,Clear,0,2013-03-30 08:53:00
5:07 AM,35.6,33.8,93,30.22,4.0,Calm,Calm,-,N/A,,Clear,0,2013-03-30 09:07:00
5:53 AM,35.1,32.0,89,30.22,4.0,Calm,Calm,-,N/A,,Clear,0,2013-03-30 09:53:00
6:24 AM,33.8,33.8,100,30.22,5.0,Calm,Calm,-,N/A,,Scattered Clouds,0,2013-03-30 10:24:00
6:33 AM,33.8,30.2,87,30.23,5.0,Calm,Calm,-,N/A,,Mostly Cloudy,0,2013-03-30 10:33:00
6:53 AM,34.0,33.1,96,30.25,1.2,Calm,Calm,-,N/A,,Overcast,0,2013-03-30 10:53:00
7:53 AM,36.0,35.1,97,30.25,1.2,ESE,3.5,-,N/A,,Overcast,110,2013-03-30 11:53:00
8:00 AM,35.6,35.6,100,30.24,0.1,East,3.5,-,N/A,Fog,Fog,100,2013-03-30 12:00:00
8:53 AM,36.0,36.0,100,30.25,0.1,Calm,Calm,-,N/A,Fog,Fog,0,2013-03-30 12:53:00
9:53 AM,37.9,37.0,97,30.23,0.2,East,3.5,-,N/A,Fog,Fog,90,2013-03-30 13:53:00
10:15 AM,39.2,37.4,93,30.22,1.5,Calm,Calm,-,N/A,,Overcast,0,2013-03-30 14:15:00
10:36 AM,39.2,39.2,100,30.22,2.5,Calm,Calm,-,N/A,,Overcast,0,2013-03-30 14:36:00
10:45 AM,41.0,41.0,100,30.22,3.0,Calm,Calm,-,N/A,,Overcast,0,2013-03-30 14:45:00
10:53 AM,42.1,41.0,96,30.23,4.0,Calm,Calm,-,N/A,,Overcast,0,2013-03-30 14:53:00
11:12 AM,42.8,41.0,93,30.22,6.0,Calm,Calm,-,N/A,,Scattered Clouds,0,2013-03-30 15:12:00
11:53 AM,50.0,42.1,74,30.21,10.0,Variable,3.5,-,N/A,,Clear,0,2013-03-30 15:53:00
12:53 PM,55.0,41.0,59,30.17,10.0,Variable,4.6,-,N/A,,Partly Cloudy,0,2013-03-30 16:53:00
1:53 PM,55.9,37.0,49,30.14,10.0,SE,5.8,-,N/A,,Partly Cloudy,130,2013-03-30 17:53:00
2:53 PM,59.0,36.0,42,30.12,10.0,Variable,5.8,18.4,N/A,,Clear,0,2013-03-30 18:53:00
3:53 PM,59.0,33.1,38,30.08,10.0,South,10.4,16.1,N/A,,Partly Cloudy,180,2013-03-30 19:53:00
4:53 PM,60.1,34.0,38,30.05,10.0,SSW,5.8,-,N/A,,Clear,210,2013-03-30 20:53:00
5:53 PM,60.1,32.0,35,30.03,10.0,South,8.1,-,N/A,,Clear,170,2013-03-30 21:53:00
6:53 PM,59.0,34.0,39,30.02,10.0,SE,9.2,-,N/A,,Clear,130,2013-03-30 22:53:00
7:53 PM,57.0,37.0,47,30.01,10.0,South,5.8,-,N/A,,Clear,170,2013-03-30 23:53:00
8:53 PM,55.9,37.9,51,30.00,10.0,SSE,3.5,-,N/A,,Clear,160,2013-03-31 00:53:00
9:53 PM,55.0,37.9,53,29.99,10.0,SSE,3.5,-,N/A,,Mostly Cloudy,160,2013-03-31 01:53:00
10:53 PM,54.0,39.0,57,29.98,10.0,Calm,Calm,-,N/A,,Overcast,0,2013-03-31 02:53:00
11:53 PM,54.0,39.9,59,29.96,10.0,Calm,Calm,-,0.00,Rain,Light Rain,0,2013-03-31 03:53:00